[[{"header":{"parameterUnit":"m.s-1","parameterCategory":1,"la1":30.2991,"la2":30.254,"lo1":-89.0895,"lo2":-89.0444,"dy":0.0017,"dx":0.0017,"nx":28,"ny":28,"refTime":"2024-03-15T21:00:00:Z","depth":0,"parameterNumber":2,"parameterNumberName":"U-component_of_WINDS"},"data":[0,0,0,0,0,0,0,0,0,0,0,0,0,0,0,0,0,0,0,0,0,0,0,0,0,0,0,0,0,0,0,0,0,0,0,0,0,0,0,0,0,0,0,0,0,0,0,0,0,0,0,0,0,0,0,0,0,0,-1.1275,-1.1275,0,-1.1297,-1.1297,-1.1297,-1.1319,-1.132,-1.132,-1.132,-1.1344,-1.1344,-1.1344,0,0,0,0,0,0,0,0,0,0,0,0,0,-1.1253,-1.1253,-1.1274,-1.1275,-1.1275,-1.1297,-1.1297,-1.1298,-1.1319,-1.132,-1.132,-1.132,-1.1344,-1.1344,-1.1344,0,0,0,0,0,0,0,0,0,0,0,0,0,-1.1268,-1.1254,-1.1274,-1.1289,-1.129,-1.1297,-1.1297,-1.1298,-1.1319,-1.132,-1.132,-1.1321,-1.1343,-1.1344,-1.1344,-1.1339,0,0,-1.1346,-1.1346,0,0,0,0,0,0,0,0,-1.1267,-1.1268,-1.1286,-1.1288,-1.1289,-1.1306,-1.1298,-1.1312,-1.1319,-1.1308,-1.132,-1.1321,-1.1331,-1.1332,-1.1336,-1.134,-1.1341,-1.1346,-1.1346,-1.1347,-1.1347,0,0,0,0,0,0,0,-1.1266,-1.1268,-1.1283,-1.1287,-1.1288,-1.1295,-1.1297,-1.1301,-1.1317,-1.1309,-1.1311,-1.1313,-1.1332,-1.1335,-1.1336,-1.1342,-1.1346,-1.1347,-1.1347,-1.1347,-1.1346,-1.1346,0,0,0,0,0,0,-1.1262,-1.1267,-1.1283,-1.1284,-1.1279,-1.1295,-1.1298,-1.13,-1.1317,-1.132,-1.1313,-1.1314,-1.1334,-1.1336,-1.1337,-1.1334,-1.1347,-1.1347,-1.1347,-1.1347,-1.1346,-1.1346,0,0,0,0,0,0,-1.1262,-1.1264,-1.1282,-1.1276,-1.1279,-1.1295,-1.1297,-1.13,-1.1304,-1.132,-1.1323,-1.1313,-1.1334,-1.1337,-1.1339,-1.1335,-1.1347,-1.1348,-1.1347,-1.1347,-1.1346,-1.1326,0,0,0,0,0,0,-1.1261,-1.1263,-1.126,-1.1276,-1.1279,-1.1282,-1.1297,-1.13,-1.1305,-1.1306,-1.1321,-1.1324,-1.1335,-1.1338,-1.134,-1.1336,-1.1348,-1.1348,-1.1347,-1.1346,-1.1327,-1.1325,-1.1323,0,0,0,0,0,-1.126,-1.1253,-1.126,-1.1262,-1.1276,-1.1282,-1.1284,-1.1297,-1.1304,-1.1302,-1.1313,-1.1323,-1.1335,-1.1338,-1.134,-1.1336,-1.1348,-1.1347,-1.1346,-1.1328,-1.1325,-1.1323,0,0,0,0,0,0,-1.1237,-1.1255,-1.1263,-1.1261,-1.127,-1.1286,-1.1283,-1.1293,-1.13,-1.1302,-1.1318,-1.1321,-1.1323,-1.133,-1.1333,-1.1334,-1.1343,-1.1343,-1.1329,-1.1326,-1.1324,-1.1322,-1.1349,0,0,0,0,0,-1.1231,-1.1234,-1.1251,-1.1247,-1.1251,-1.1267,-1.127,-1.128,-1.1289,-1.1293,-1.1304,-1.1314,-1.132,-1.1324,-1.133,-1.1329,-1.1333,-1.1328,-1.1326,-1.1324,-1.1323,-1.1325,-1.1324,-1.1344,-1.1344,-1.1344,0,0,-1.122,-1.1231,-1.1231,-1.1243,-1.1251,-1.1255,-1.1269,-1.1272,-1.1276,-1.1294,-1.1297,-1.1306,-1.1318,-1.1319,-1.132,-1.1325,-1.1319,-1.1323,-1.1321,-1.1322,-1.1324,-1.1323,-1.1321,-1.1343,-1.1343,-1.1343,0,0,-1.1201,-1.1209,-1.1208,-1.1216,-1.1229,-1.1239,-1.1239,-1.1254,-1.1261,-1.1265,-1.1279,-1.1284,-1.1294,-1.1303,-1.1309,-1.1297,-1.1308,-1.1299,-1.1288,-1.129,-1.1289,-1.1287,-1.1285,-1.1283,-1.1299,-1.1298,-1.1298,0,-1.1185,-1.1191,-1.1206,-1.1209,-1.1214,-1.1232,-1.1232,-1.1239,-1.1253,-1.1257,-1.1263,-1.1278,-1.1287,-1.1292,-1.1289,-1.1293,-1.1295,-1.1297,-1.1288,-1.1286,-1.1285,-1.1283,-1.1282,-1.1297,-1.1298,-1.1298,-1.1298,0,-1.1172,-1.1176,-1.1174,-1.1187,-1.1193,-1.1194,-1.1211,-1.1215,-1.1225,-1.1236,-1.1241,-1.1253,-1.1264,-1.1266,-1.1275,-1.1273,-1.1276,-1.1284,-1.1294,-1.1282,-1.128,-1.1279,-1.1296,-1.1296,-1.1297,-1.1297,0,0,-1.1136,-1.1161,-1.116,-1.1167,-1.1184,-1.1188,-1.1191,-1.1202,-1.1206,-1.1216,-1.122,-1.123,-1.1239,-1.1245,-1.1256,-1.1258,-1.1251,-1.1267,-1.1267,-1.1264,-1.1251,-1.1245,-1.1243,-1.1258,-1.1258,-1.1258,-1.125,0,-1.1121,-1.1127,-1.1142,-1.1144,-1.1149,-1.1168,-1.1171,-1.1183,-1.1193,-1.12,-1.1213,-1.122,-1.123,-1.1235,-1.1238,-1.1251,-1.1248,-1.1252,-1.1263,-1.1263,-1.1259,-1.1242,-1.1234,-1.1227,-1.125,-1.1249,-1.1249,0,-1.1103,-1.1112,-1.1115,-1.1134,-1.1137,-1.1139,-1.1152,-1.1158,-1.1172,-1.118,-1.1189,-1.1202,-1.1209,-1.1218,-1.1228,-1.123,-1.1236,-1.1244,-1.1244,-1.1245,-1.1255,-1.1243,-1.1224,-1.1223,-1.1248,-1.1248,-1.1248,0,-1.1078,-1.1092,-1.1096,-1.1102,-1.1124,-1.1125,-1.1135,-1.1149,-1.1156,-1.1167,-1.1172,-1.1184,-1.1191,-1.1201,-1.1217,-1.1222,-1.1226,-1.1237,-1.1234,-1.1234,-1.1233,-1.1233,-1.1215,-1.1237,-1.1237,-1.1237,-1.1237,0,-1.1059,-1.106,-1.1085,-1.1088,-1.1091,-1.1109,-1.1112,-1.1123,-1.1137,-1.1143,-1.116,-1.1165,-1.1187,-1.1196,-1.1209,-1.1216,-1.1219,-1.1227,-1.123,-1.1225,-1.1224,-1.1229,-1.123,-1.1237,-1.1237,-1.1237,-1.1237,0,-1.1031,-1.1048,-1.1054,-1.1075,-1.1081,-1.1082,-1.11,-1.1104,-1.1118,-1.1125,-1.1128,-1.1149,-1.116,-1.1178,-1.1195,-1.1204,-1.1209,-1.1215,-1.1204,-1.1206,-1.1203,-1.1204,-1.1188,-1.1188,-1.1209,-1.1209,-1.1209,0,-1.1018,-1.1019,-1.1041,-1.1047,-1.1056,-1.1064,-1.1071,-1.1091,-1.1098,-1.1116,-1.1118,-1.1131,-1.1142,-1.116,-1.1177,-1.1191,-1.1197,-1.1191,-1.1199,-1.1195,-1.1198,-1.1198,-1.1199,-1.1189,-1.1188,-1.1188,-1.1188,0,-1.0993,-1.1002,-1.1011,-1.1025,-1.1033,-1.1044,-1.1057,-1.1061,-1.1083,-1.1091,-1.1103,-1.1112,-1.113,-1.1143,-1.1159,-1.117,-1.1183,-1.1186,-1.1186,-1.1181,-1.1175,-1.1179,-1.1199,-1.1185,-1.1186,-1.1186,-1.1186,-1.1186,-1.0973,-1.0976,-1.0992,-1.1003,-1.1015,-1.1027,-1.1032,-1.1047,-1.1057,-1.1073,-1.1085,-1.1097,-1.1114,-1.1138,-1.1148,-1.1159,-1.1165,-1.1165,-1.1165,-1.1165,-1.1163,-1.1173,-1.1162,-1.1162,-1.1162,-1.1162,-1.1162,0,-1.0949,-1.0962,-1.0972,-1.0989,-1.0998,-1.101,-1.1026,-1.1033,-1.1043,-1.1058,-1.1069,-1.1085,-1.1098,-1.1118,-1.1133,-1.1138,-1.1145,-1.1142,-1.1142,-1.1145,-1.1157,-1.1155,-1.1136,-1.1136,-1.1136,-1.1137,-1.1137,-1.1137,-1.0938,-1.0945,-1.0957,-1.097,-1.0983,-1.0995,-1.1003,-1.1014,-1.1027,-1.1043,-1.1055,-1.1067,-1.1085,-1.1103,-1.1117,-1.1122,-1.1127,-1.1123,-1.113,-1.1141,-1.1143,-1.1146,-1.1144,-1.1123,-1.1123,-1.1117,-1.1117,-1.1117]},{"header":{"parameterUnit":"m.s-1","parameterCategory":1,"la1":30.2991,"la2":30.254,"lo1":-89.0895,"lo2":-89.0444,"dy":0.0017,"dx":0.0017,"nx":28,"ny":28,"refTime":"2024-03-15T21:00:00:Z","depth":0,"parameterNumber":3,"parameterNumberName":"V-component_of_WINDS"},"data":[0,0,0,0,0,0,0,0,0,0,0,0,0,0,0,0,0,0,0,0,0,0,0,0,0,0,0,0,0,0,0,0,0,0,0,0,0,0,0,0,0,0,0,0,0,0,0,0,0,0,0,0,0,0,0,0,0,0,-1.9345,-1.9346,0,-1.9384,-1.9384,-1.9385,-1.9411,-1.9411,-1.9412,-1.9412,-1.9447,-1.9448,-1.9449,0,0,0,0,0,0,0,0,0,0,0,0,0,-1.9293,-1.9293,-1.9345,-1.9346,-1.9346,-1.9384,-1.9385,-1.9385,-1.9411,-1.9411,-1.9412,-1.9412,-1.9447,-1.9448,-1.9449,0,0,0,0,0,0,0,0,0,0,0,0,0,-1.9322,-1.9294,-1.9345,-1.9364,-1.9366,-1.9384,-1.9385,-1.9385,-1.9411,-1.9411,-1.9412,-1.9412,-1.9447,-1.9448,-1.9449,-1.945,0,0,-1.9452,-1.9453,0,0,0,0,0,0,0,0,-1.932,-1.9323,-1.9361,-1.9363,-1.9365,-1.9393,-1.9379,-1.9407,-1.9411,-1.9394,-1.9412,-1.9412,-1.9429,-1.9431,-1.9438,-1.9452,-1.9453,-1.9453,-1.9453,-1.9454,-1.9454,0,0,0,0,0,0,0,-1.9318,-1.9322,-1.9361,-1.9361,-1.9364,-1.937,-1.9374,-1.9384,-1.9409,-1.9395,-1.9397,-1.9402,-1.943,-1.9437,-1.9439,-1.9454,-1.9453,-1.9454,-1.9454,-1.9455,-1.9473,-1.9473,0,0,0,0,0,0,-1.9313,-1.932,-1.9359,-1.9362,-1.9343,-1.9371,-1.9376,-1.9384,-1.9409,-1.9413,-1.9402,-1.9403,-1.9435,-1.9438,-1.944,-1.9445,-1.9454,-1.9455,-1.9455,-1.9473,-1.9473,-1.9473,0,0,0,0,0,0,-1.9312,-1.9317,-1.9358,-1.9342,-1.9347,-1.9371,-1.938,-1.9384,-1.9391,-1.9414,-1.9418,-1.9404,-1.9435,-1.9439,-1.9448,-1.9447,-1.9455,-1.9456,-1.9474,-1.9473,-1.9473,-1.9453,0,0,0,0,0,0,-1.931,-1.9316,-1.9317,-1.9341,-1.9348,-1.9366,-1.938,-1.9385,-1.9394,-1.9396,-1.9417,-1.9421,-1.9436,-1.9447,-1.9449,-1.9448,-1.9457,-1.9474,-1.9473,-1.9473,-1.9454,-1.9452,-1.9451,0,0,0,0,0,-1.9308,-1.9308,-1.9317,-1.9321,-1.935,-1.9365,-1.9369,-1.9387,-1.9393,-1.9394,-1.9409,-1.942,-1.9446,-1.9447,-1.9451,-1.945,-1.9474,-1.9474,-1.9473,-1.9455,-1.9453,-1.9451,0,0,0,0,0,0,-1.928,-1.9312,-1.9321,-1.9329,-1.9345,-1.937,-1.9371,-1.9384,-1.9397,-1.9398,-1.9418,-1.9423,-1.9431,-1.9441,-1.9442,-1.9454,-1.9462,-1.9462,-1.9447,-1.9445,-1.9443,-1.944,-1.9458,0,0,0,0,0,-1.9275,-1.9286,-1.9313,-1.9317,-1.9325,-1.9347,-1.9354,-1.9367,-1.9383,-1.939,-1.9405,-1.942,-1.9432,-1.9439,-1.945,-1.9456,-1.9462,-1.9457,-1.9456,-1.9454,-1.9454,-1.946,-1.9459,-1.9472,-1.9472,-1.9472,0,0,-1.9264,-1.9283,-1.9288,-1.9312,-1.9326,-1.9337,-1.9352,-1.9362,-1.937,-1.9391,-1.9402,-1.9414,-1.9431,-1.944,-1.9444,-1.9449,-1.9452,-1.9454,-1.9452,-1.9453,-1.946,-1.9458,-1.9457,-1.9471,-1.9471,-1.9471,0,0,-1.925,-1.9265,-1.9272,-1.9286,-1.9307,-1.9323,-1.9324,-1.9348,-1.9358,-1.937,-1.9386,-1.9396,-1.9415,-1.9428,-1.9437,-1.9432,-1.9443,-1.9435,-1.9426,-1.9431,-1.943,-1.943,-1.9429,-1.9428,-1.9435,-1.9435,-1.9435,0,-1.9234,-1.9252,-1.9273,-1.9284,-1.9294,-1.9316,-1.9323,-1.9335,-1.9358,-1.9365,-1.937,-1.9397,-1.941,-1.9423,-1.9422,-1.9428,-1.9431,-1.9432,-1.9429,-1.9428,-1.9428,-1.9428,-1.9427,-1.9434,-1.9434,-1.9434,-1.9434,0,-1.9231,-1.9244,-1.9246,-1.9271,-1.9282,-1.929,-1.9313,-1.9321,-1.9334,-1.9349,-1.9362,-1.9379,-1.9396,-1.94,-1.9411,-1.9415,-1.9417,-1.9425,-1.9434,-1.9426,-1.9426,-1.9426,-1.9432,-1.9432,-1.9433,-1.9433,0,0,-1.9199,-1.9238,-1.9239,-1.9252,-1.9278,-1.9288,-1.9298,-1.9317,-1.9324,-1.934,-1.9349,-1.9367,-1.9376,-1.9386,-1.9399,-1.9404,-1.9401,-1.9412,-1.9412,-1.941,-1.9408,-1.9402,-1.9402,-1.9408,-1.9408,-1.9408,-1.9407,0,-1.919,-1.9211,-1.9232,-1.9245,-1.9257,-1.9279,-1.9288,-1.9306,-1.932,-1.9333,-1.9348,-1.9361,-1.9371,-1.9378,-1.9383,-1.94,-1.9401,-1.94,-1.9417,-1.9418,-1.9413,-1.9401,-1.9395,-1.9392,-1.9407,-1.9407,-1.9407,0,-1.9182,-1.92,-1.9215,-1.9243,-1.9249,-1.9257,-1.9277,-1.9289,-1.9309,-1.932,-1.9333,-1.9348,-1.936,-1.9367,-1.9384,-1.9384,-1.9392,-1.9401,-1.9402,-1.9404,-1.9412,-1.9404,-1.9392,-1.9392,-1.9407,-1.9407,-1.9407,0,-1.9159,-1.9186,-1.92,-1.921,-1.9242,-1.9248,-1.9261,-1.9283,-1.9293,-1.931,-1.9318,-1.9335,-1.9345,-1.9358,-1.9378,-1.9381,-1.9393,-1.9402,-1.9403,-1.9402,-1.9404,-1.9404,-1.9393,-1.9408,-1.9408,-1.9408,-1.9408,0,-1.9147,-1.9156,-1.9191,-1.9199,-1.921,-1.9234,-1.9243,-1.9259,-1.9278,-1.9289,-1.9309,-1.9319,-1.9344,-1.9357,-1.9372,-1.9385,-1.9388,-1.9397,-1.9401,-1.9396,-1.9395,-1.9402,-1.9403,-1.9408,-1.9408,-1.9408,-1.9408,0,-1.9123,-1.9146,-1.9163,-1.9194,-1.9202,-1.9208,-1.9235,-1.9243,-1.926,-1.9275,-1.928,-1.9305,-1.9322,-1.9343,-1.9366,-1.9376,-1.9388,-1.9393,-1.9381,-1.9384,-1.9384,-1.9384,-1.9378,-1.9379,-1.9392,-1.9392,-1.9392,0,-1.9114,-1.9122,-1.9155,-1.9165,-1.9179,-1.9194,-1.9206,-1.9231,-1.9242,-1.9268,-1.9274,-1.9293,-1.9309,-1.9335,-1.9355,-1.9373,-1.938,-1.9377,-1.9383,-1.9378,-1.9381,-1.9381,-1.9382,-1.9375,-1.9375,-1.9375,-1.9374,0,-1.9097,-1.9109,-1.9126,-1.9149,-1.9163,-1.9181,-1.92,-1.9207,-1.9235,-1.9247,-1.9266,-1.9279,-1.9304,-1.9322,-1.9344,-1.9357,-1.9371,-1.9373,-1.9374,-1.9369,-1.9362,-1.9367,-1.9378,-1.9373,-1.9373,-1.9373,-1.9373,-1.9373,-1.9081,-1.909,-1.9115,-1.9135,-1.9152,-1.917,-1.9181,-1.92,-1.9217,-1.924,-1.9253,-1.9272,-1.9294,-1.9325,-1.9338,-1.9352,-1.9357,-1.9359,-1.9359,-1.9359,-1.9358,-1.936,-1.9356,-1.9356,-1.9356,-1.9356,-1.9356,0,-1.9066,-1.9084,-1.9102,-1.9129,-1.9145,-1.9158,-1.918,-1.9192,-1.9209,-1.9229,-1.9246,-1.9268,-1.9287,-1.931,-1.9331,-1.9338,-1.9345,-1.9343,-1.9343,-1.9346,-1.9352,-1.935,-1.9337,-1.9337,-1.9337,-1.9337,-1.9337,-1.9337,-1.906,-1.9076,-1.9092,-1.9118,-1.9136,-1.9156,-1.9167,-1.9184,-1.9201,-1.9226,-1.9243,-1.9258,-1.928,-1.9302,-1.932,-1.9327,-1.9334,-1.933,-1.9338,-1.9343,-1.9345,-1.9347,-1.9344,-1.9331,-1.9331,-1.933,-1.933,-1.933]}]]